Weather History for Wichita, KS

Change the Weather History Date:

Friday, January 10, 2014

  Actual Average Record
Temperature  
Mean Temperature 40 °F 32 °F  
Max Temperature 48 °F 42 °F 74 °F (1911)
Min Temperature 31 °F 22 °F -10 °F (1982)
Degree Days  
Heating Degree Days 25 33  
Month to date heating degree days 396 330  
Since 1 July heating degree days 2351 2173  
Cooling Degree Days 0 0  
Month to date cooling degree days 0 0  
Year to date cooling degree days 0 0  
Moisture  
Dew Point 36 °F    
Average Humidity 79    
Maximum Humidity 100    
Minimum Humidity 58    
Precipitation  
Precipitation 0.01 in 0.02 in 0.85 in (1948)
Month to date precipitation 0.11 0.24  
Year to date precipitation 0.11 0.24  
Snow  
Snow 0.00 in 0.10 in 6.80 in (1918)
Month to date snowfall 2.9 1.1  
Since 1 July snowfall 6.3 6.7  
Snow Depth 0.00 in    
Sea Level Pressure  
Sea Level Pressure 29.67 in    
Wind  
Wind Speed 13 mph (SW)    
Max Wind Speed 22 mph    
Max Gust Speed 26 mph    
Visibility 5 miles    
Events Fog , Rain    
T = Trace of Precipitation, MM = Missing Value Source: NWS Daily Summary

Daily Weather History Graph

Daily Weather History Graph

Search for Another Location

Airport:

Trip Planner

Search our weather history database for the weather conditions in past years. The results will help you decide how hot, cold, wet, or windy it might be!

Date:

Astronomy

Jan. 10, 2014 Rise Set
Actual Time 7:44 AM CST 5:30 PM CST
Civil Twilight 7:15 AM CST 5:58 PM CST
Nautical Twilight 6:43 AM CST 6:31 PM CST
Astronomical Twilight 6:11 AM CST 7:03 PM CST
Moon 1:33 PM CST (1/10) 2:55 AM CST (1/10)
Length of Visible Light 10h 43m
Length of Day
9h 45m
Waxing Gibbous, 75% of the Moon is Illuminated
Jan 10
Waxing Gibbous
Jan 15
Full
Jan 23
Last Quarter
Jan 30
New
Feb 6
First Quarter

Hourly Weather History & Observations

Time (CST) Temp. Windchill Dew Point Humidity Pressure Visibility Wind Dir Wind Speed Gust Speed Precip Events Conditions
12:53 AM 35.1 °F 25.9 °F 34.0 °F 96% 29.90 in 2.0 mi SSE 13.8 mph - 0.00 in   Light Drizzle
1:53 AM 35.1 °F 24.8 °F 34.0 °F 96% 29.87 in 2.0 mi South 17.3 mph - 0.00 in   Light Drizzle
2:53 AM 35.1 °F 25.5 °F 35.1 °F 100% 29.84 in 1.5 mi South 15.0 mph - 0.00 in   Light Drizzle
3:53 AM 35.1 °F 25.9 °F 35.1 °F 100% 29.78 in 0.5 mi SSE 13.8 mph - 0.00 in Fog Light Drizzle
4:48 AM 35.6 °F 25.9 °F 35.6 °F 100% 29.72 in 1.0 mi SSE 16.1 mph - 0.00 in   Light Drizzle
4:53 AM 36.0 °F 26.7 °F 35.1 °F 97% 29.74 in 1.0 mi SSE 15.0 mph - 0.00 in   Light Drizzle
5:53 AM 36.0 °F 27.5 °F 35.1 °F 97% 29.70 in 1.0 mi SSE 12.7 mph - 0.00 in   Light Drizzle
6:11 AM 35.6 °F 26.6 °F 35.6 °F 100% 29.67 in 0.5 mi SSE 13.8 mph - 0.00 in   Light Drizzle
6:53 AM 37.0 °F 27.7 °F 37.0 °F 100% 29.68 in 0.5 mi South 16.1 mph - 0.00 in Fog Light Drizzle
7:12 AM 37.4 °F 28.5 °F 37.4 °F 100% 29.65 in 0.2 mi South 15.0 mph - 0.00 in Fog Light Drizzle
7:53 AM 37.9 °F 30.0 °F 37.9 °F 100% 29.67 in 0.2 mi South 12.7 mph - 0.00 in Fog Light Drizzle
8:01 AM 37.4 °F 28.9 °F 37.4 °F 100% 29.64 in 0.1 mi South 13.8 mph - 0.00 in Fog Light Drizzle
8:13 AM 39.2 °F 30.8 °F 37.4 °F 93% 29.63 in 0.1 mi South 15.0 mph - 0.00 in Fog Light Drizzle
8:53 AM 39.9 °F 32.1 °F 39.9 °F 100% 29.65 in 0.1 mi South 13.8 mph - 0.01 in Fog Light Drizzle
9:05 AM 41.0 °F 33.5 °F 39.2 °F 93% 29.63 in 0.1 mi South 13.8 mph - 0.00 in Fog Light Drizzle
9:22 AM 41.0 °F 33.5 °F 41.0 °F 100% 29.63 in 0.8 mi SSW 13.8 mph - 0.00 in   Overcast
9:40 AM 42.8 °F 36.2 °F 41.0 °F 93% 29.63 in 1.5 mi SSW 12.7 mph - 0.00 in   Overcast
9:51 AM 42.8 °F 36.6 °F 41.0 °F 93% 29.64 in 2.5 mi SW 11.5 mph 18.4 mph 0.00 in   Overcast
9:53 AM 42.1 °F 34.5 °F 41.0 °F 96% 29.65 in 2.5 mi SW 15.0 mph 19.6 mph 0.00 in   Overcast
10:00 AM 42.8 °F 35.4 °F 41.0 °F 93% 29.64 in 3.0 mi SW 15.0 mph - N/A   Overcast
10:09 AM 42.8 °F 35.4 °F 41.0 °F 93% 29.63 in 6.0 mi SW 15.0 mph - N/A   Overcast
10:53 AM 44.1 °F 37.4 °F 42.1 °F 93% 29.64 in 10.0 mi SW 13.8 mph 20.7 mph N/A   Mostly Cloudy
11:15 AM 44.6 °F 37.8 °F 42.8 °F 93% 29.62 in 10.0 mi WSW 15.0 mph - N/A   Mostly Cloudy
11:38 AM 44.6 °F 38.1 °F 39.2 °F 81% 29.60 in 10.0 mi WSW 13.8 mph - N/A   Mostly Cloudy
11:53 AM 45.0 °F 39.3 °F 39.9 °F 82% 29.62 in 10.0 mi West 11.5 mph - N/A   Mostly Cloudy
12:53 PM 42.1 °F 33.9 °F 35.1 °F 76% 29.61 in 10.0 mi WNW 17.3 mph 26.5 mph N/A   Mostly Cloudy
1:53 PM 43.0 °F 35.1 °F 35.1 °F 74% 29.60 in 10.0 mi WNW 17.3 mph - N/A   Mostly Cloudy
2:38 PM 44.6 °F 37.2 °F 33.8 °F 66% 29.58 in 10.0 mi NW 17.3 mph - N/A   Mostly Cloudy
2:53 PM 44.1 °F 37.7 °F 33.1 °F 65% 29.60 in 10.0 mi WNW 12.7 mph - N/A   Mostly Cloudy
3:53 PM 46.9 °F - 33.1 °F 59% 29.61 in 10.0 mi WNW 11.5 mph - N/A   Scattered Clouds
4:53 PM 46.0 °F 41.4 °F 32.0 °F 58% 29.62 in 10.0 mi West 9.2 mph - N/A   Partly Cloudy
5:53 PM 37.0 °F 33.3 °F 28.9 °F 73% 29.64 in 10.0 mi WSW 4.6 mph - N/A   Scattered Clouds
6:53 PM 35.1 °F 30.1 °F 28.0 °F 76% 29.66 in 10.0 mi West 5.8 mph - N/A   Scattered Clouds
7:53 PM 35.1 °F 27.9 °F 28.9 °F 78% 29.69 in 10.0 mi NW 9.2 mph - N/A   Scattered Clouds
8:53 PM 39.9 °F 31.4 °F 34.0 °F 79% 29.70 in 10.0 mi NW 16.1 mph 24.2 mph 0.00 in Rain Light Rain
9:53 PM 37.0 °F 29.3 °F 34.0 °F 89% 29.72 in 10.0 mi NW 11.5 mph - 0.00 in   Scattered Clouds
10:53 PM 36.0 °F 29.6 °F 33.1 °F 89% 29.74 in 10.0 mi WNW 8.1 mph - N/A   Mostly Cloudy
11:53 PM 34.0 °F 26.0 °F 33.1 °F 96% 29.75 in 9.0 mi West 10.4 mph - N/A   Mostly Cloudy